{"data":{"norad_id":65927,"intl_designator":"2025-225T","name":"STARLINK-35494","alt_names":[],"object_type":"PAYLOAD","status":"ACTIVE","operator":null,"country":"US","launch_date":"2025-10-08","launch_site_code":"AFWTR","launch_vehicle":null,"mission":null,"orbit_class":"UNKNOWN","rcs_meters":null,"size_class":null,"mass_kg":null,"dimensions":null,"purposes":["comms"],"wikipedia_slug":null,"has_3d_model":false,"image_url":null,"decayed_at":null,"tle_current":{"epoch":"2026-05-25T02:06:52.864704Z","epoch_age_seconds":74363,"freshness":"FRESH","line1":"1 65927U 25225T   26145.08811186  .00019845  00000+0  59669-3 0  9990","line2":"2 65927  53.1586 170.9157 0001110  83.5264 276.5865 15.34411945 36106","mean_motion":15.34411945,"eccentricity":0.000111,"inclination_deg":53.1586,"raan_deg":170.9157,"arg_perigee_deg":83.5264,"mean_anomaly_deg":276.5865,"bstar":0.00059669,"rev_number":3610,"period_min":93.847027500819,"perigee_km":461.90840805428,"apogee_km":463.42706670598,"semimajor_km":6840.8047373801,"source":"CELESTRAK","updated_at":"2026-05-25T13:38:20.989811Z"}}}